FW9069 Weather Reports


Display with metric or nautical units.
time (UTC)temp
F
wind
direction
speed
MPH
gust
MPH
rain 1hr
in
rain 24hr
in
rain mn
in
humidity
%
barometer
mb
20260507040326 53 235 11.0 19.0 0.00 0.00 0.00 84 1020.9
20260507034815 53 223 11.0 18.0 0.00 0.00 0.00 84 1020.8
20260507033347 54 244 11.0 19.0 0.00 0.00 0.00 83 1020.7
20260507031854 54 211 11.0 16.0 0.00 0.00 0.00 83 1020.6
20260507030323 55 220 8.0 14.0 0.00 0.00 0.00 81 1020.5
20260507024827 56 221 6.0 14.0 0.00 0.00 0.00 80 1020.5
20260507023358 57 227 9.0 15.0 0.00 0.00 0.00 78 1020.4
20260507021823 59 242 7.0 15.0 0.00 0.00 0.00 76 1020.4
20260507020331 60 221 9.0 17.0 0.00 0.00 0.00 74 1020.5
20260507014814 61 242 8.0 18.0 0.00 0.00 0.00 72 1020.6
20260507013349 63 244 8.0 15.0 0.00 0.00 0.00 71 1020.6
20260507011829 63 212 7.0 13.0 0.00 0.00 0.00 71 1020.5
20260507010344 64 243 10.0 17.0 0.00 0.00 0.00 69 1020.7
20260507004832 66 231 9.0 15.0 0.00 0.00 0.00 68 1020.7
20260507003342 67 225 5.0 14.0 0.00 0.00 0.00 66 1020.6
20260507001851 67 252 7.0 16.0 0.00 0.00 0.00 65 1020.6
20260507000338 68 238 6.0 12.0 0.00 0.00 0.00 64 1020.6
20260506234846 69 239 7.0 15.0 0.00 0.00 0.00 64 1020.6
20260506233350 70 253 5.0 11.0 0.00 0.00 0.00 62 1020.5
20260506231836 72 227 5.0 11.0 0.00 0.00 0.00 62 1020.6
20260506230327 72 209 6.0 12.0 0.00 0.00 0.00 62 1020.5
20260506224838 73 225 5.0 12.0 0.00 0.00 0.00 63 1020.7
20260506223327 73 214 5.0 8.0 0.00 0.00 0.00 65 1020.8
20260506221830 72 202 4.0 9.0 0.00 0.00 0.00 62 1020.9
20260506220333 72 233 3.0 8.0 0.00 0.00 0.00 65 1020.8
20260506214837 71 216 5.0 10.0 0.00 0.00 0.00 67 1020.9
20260506213322 70 222 4.0 9.0 0.00 0.00 0.00 66 1021.0
20260506211827 69 117 3.0 7.0 0.00 0.00 0.00 67 1020.9
20260506210331 68 192 1.0 8.0 0.00 0.00 0.00 72 1021.1
20260506204836 66 177 1.0 8.0 0.00 0.00 0.00 71 1021.3
20260506203322 66 233 4.0 7.0 0.00 0.00 0.00 75 1021.3
20260506201849 65 225 1.0 9.0 0.00 0.00 0.00 75 1021.4
20260506200336 65 207 1.0 7.0 0.00 0.00 0.00 75 1021.4
20260506194843 64 198 1.0 7.0 0.00 0.00 0.00 79 1021.4
20260506193328 64 201 4.0 9.0 0.00 0.00 0.00 78 1021.4
20260506191858 64 120 5.0 11.0 0.00 0.00 0.00 80 1021.5
20260506190323 62 178 4.0 8.0 0.00 0.00 0.00 80 1021.5
20260506184832 61 147 2.0 9.0 0.00 0.00 0.00 83 1021.5
20260506183333 60 154 3.0 8.0 0.00 0.00 0.00 85 1021.6
20260506181821 59 202 4.0 8.0 0.00 0.00 0.00 85 1021.6
20260506180331 58 112 7.0 10.0 0.00 0.00 0.00 87 1021.5
20260506174833 57 115 7.0 10.0 0.00 0.00 0.00 88 1021.2
20260506173319 56 204 1.0 7.0 0.00 0.00 0.00 89 1021.4
20260506171826 55 197 3.0 7.0 0.00 0.00 0.00 90 1021.7
20260506170314 54 208 3.0 7.0 0.00 0.00 0.00 92 1021.2
20260506164829 54 219 2.0 7.0 0.00 0.00 0.00 92 1021.5
20260506163335 53 204 3.0 8.0 0.00 0.00 0.00 93 1021.5
20260506161835 53 194 3.0 7.0 0.00 0.00 0.00 94 1021.5
20260506160322 53 176 2.0 6.0 0.00 0.00 0.00 94 1021.1
20260506154849 52 167 2.0 4.0 0.00 0.00 0.00 94 1020.9
20260506153330 52 203 1.0 4.0 0.00 0.00 0.00 94 1021.3
20260506151836 52 186 3.0 6.0 0.00 0.00 0.00 94 1021.3
20260506150324 52 237 3.0 8.0 0.00 0.00 0.00 94 1021.4
20260506144827 52 218 6.0 14.0 0.00 0.00 0.00 93 1021.4
20260506143331 51 207 9.0 13.0 0.00 0.00 0.00 93 1020.8
20260506141834 51 169 5.0 9.0 0.00 0.00 0.00 94 1020.3
20260506140321 51 175 3.0 6.0 0.00 0.00 0.00 95 1020.2
20260506134824 51 177 2.0 6.0 0.00 0.00 0.00 94 1020.4
20260506133330 50 179 3.0 6.0 0.00 0.00 0.00 93 1020.4
20260506131832 50 208 1.0 4.0 0.00 0.00 0.00 91 1020.2
20260506130337 51 221 3.0 4.0 0.00 0.00 0.00 90 1020.2
20260506124821 52 235 1.0 2.0 0.00 0.00 0.00 90 1020.1
20260506123326 52 234 2.0 8.0 0.00 0.00 0.00 90 1020.1
20260506121813 52 209 3.0 5.0 0.00 0.00 0.00 90 1020.1
20260506120325 52 210 3.0 4.0 0.00 0.00 0.00 90 1019.9
20260506114829 52 250 2.0 6.0 0.00 0.00 0.00 91 1020.0
20260506113353 52 287 2.0 4.0 0.00 0.00 0.00 92 1019.5
20260506111818 52 196 2.0 5.0 0.00 0.00 0.00 93 1019.3
20260506110323 52 238 0.0 3.0 0.00 0.00 0.00 93 1019.3
20260506104825 52 228 3.0 5.0 0.00 0.00 0.00 94 1019.0
20260506103330 51 233 0.0 1.0 0.00 0.00 0.00 93 1018.8
20260506101855 51 233 0.0 0.0 0.00 0.00 0.00 91 1018.7
20260506100337 52 232 0.0 1.0 0.00 0.00 0.00 90 1018.6
20260506094822 52 233 0.0 1.0 0.00 0.00 0.00 90 1018.5
20260506093328 53 233 0.0 2.0 0.00 0.00 0.00 89 1018.4
20260506091828 54 232 1.0 2.0 0.00 0.00 0.00 89 1018.3
20260506090333 54 225 2.0 6.0 0.00 0.00 0.00 90 1018.1
20260506084819 54 224 7.0 11.0 0.00 0.00 0.00 89 1018.1
20260506083324 54 222 7.0 10.0 0.00 0.00 0.00 88 1018.0
20260506081826 54 231 3.0 9.0 0.00 0.00 0.00 88 1018.1
20260506080333 55 227 6.0 8.0 0.00 0.00 0.00 87 1018.1
20260506073319 57 237 1.0 2.0 0.00 0.00 0.00 86 1018.0
20260506071825 57 237 0.0 2.0 0.00 0.00 0.00 85 1018.0
20260506070331 57 228 0.0 2.0 0.00 0.00 0.00 86 1018.0
20260506061839 57 229 2.0 3.0 0.00 0.00 0.00 85 1017.9
20260506060328 57 229 3.0 5.0 0.00 0.00 0.00 85 1017.5
20260506050337 58 219 4.0 5.0 0.00 0.00 0.00 83 1017.2
20260506044823 59 235 4.0 7.0 0.00 0.00 0.00 82 1017.1
20260506043326 60 277 2.0 4.0 0.00 0.00 0.00 82 1017.0
20260506041834 60 16 1.0 2.0 0.00 0.00 0.00 80 1016.8